This demonstration page uses our WeatherBlox Daily Observations layout. Learn more.

41.55636, -103.73856

Hourly Observations for July 11, 2019

Temp ( °F °C ) Dew Point ( °F °C ) Humidity (%) Winds ( mph kmh ) Pressure ( in mb ) Visibility ( mi km ) Precip ( " mm )
12:58 am 00:58 Clear 73 22.9 54 12.4 52 52 SSE 13 20 30.18 1022 10 16.0934 0 0
1:58 am 01:58 Clear 69 20.4 54 12.2 59 59 S 10 17 30.18 1022 10 16.0934 0 0
2:58 am 02:58 Clear 63 17.3 54 12.2 72 72 S 9 15 30.19 1022 10 16.0934 0 0
3:58 am 03:58 Clear 61 16.1 53 11.6 75 75 S 7 11 30.21 1023 10 16.0934 0 0
4:58 am 04:58 Clear 59 15.1 53 11.4 79 79 S 12 19 30.21 1023 10 16.0934 0 0
5:58 am 05:58 Clear 58 14.7 52 10.9 78 78 S 13 20 30.2 1023 10 16.0934 0 0
6:58 am 06:58 Clear 56 13.6 51 10.4 81 81 S 13 20 30.18 1022 10 16.0934 0 0
7:58 am 07:58 Clear 57 14 50 9.9 77 77 S 12 19 30.16 1021 10 16.0934 0 0
8:58 am 08:58 Clear 56 13.5 49 9.6 77 77 S 12 19 30.13 1020 10 16.0934 0 0
9:58 am 09:58 Clear 55 13 49 9.6 80 80 S 12 19 30.11 1020 10 16.0934 0 0
10:58 am 10:58 Clear 54 12.4 49 9.6 83 83 SSW 14 22 30.11 1020 10 16.0934 0 0
11:58 am 11:58 Sunny 56 13.1 50 10.2 83 83 SSW 15 24 30.09 1019 10 16.0934 0 0
12:58 pm 12:58 Sunny 60 15.6 52 11.1 75 75 WSW 6 9 30.09 1019 10 16.0934 0 0
1:58 pm 13:58 Sunny 70 21.1 53 11.9 56 56 W 10 17 30.07 1018 10 16.0934 0 0
2:58 pm 14:58 Sunny 76 24.4 58 14.3 53 53 SW 12 19 30.08 1019 10 16.0934 0 0
4:56 pm 16:56 Sunny 83 28.6 55 12.9 38 38 SW 15 24 30.06 1018 10 16.0934 0 0
5:56 pm 17:56 Sunny 86 30 54 12.2 33 33 SW 10 17 30.04 1017 10 16.0934 0 0
6:56 pm 18:56 Sunny 89 31.6 41 4.9 19 19 NW 7 11 30.02 1017 10 16.0934 0 0
7:58 pm 19:58 Sunny 90 32.1 44 6.4 20 20 NW 8 13 30.01 1016 10 16.0934 0 0
8:58 pm 20:58 Sunny 90 32.4 41 4.8 18 18 NNW 14 22 30 1016 10 16.0934 0 0
9:58 pm 21:58 Sunny 90 32.3 42 5.4 18 18 NW 10 17 29.98 1015 10 16.0934 0 0
10:58 pm 22:58 Sunny 89 31.6 49 9.6 26 26 N 8 13 29.98 1015 10 16.0934 0 0
11:58 pm 23:58 Sunny 87 30.6 51 10.7 29 29 NE 6 9 29.97 1015 10 16.0934 0 0

Powered by AerisWeather